Header for Extended Forecast Station List Page

Search by: ID | Name | Date | Parm | Value | Avg | % Avg
Sort by: ID | Name | Date | Parm | Value | Avg | % Avg

Enter search or view all records.

Click on id for station plot
#IDNameDateParmValueAvg% Avg
0LYDM8KOOTENAI-LIBBY DAM07-06-2020INFLOW (KAF)2323243895
1LEOI1KOOTENAI-AT LEONIA07-06-2020DISCHARGE (KAF)2571264597
2BFEI1KOOTENAI-AT BONNERS FERRY07-06-2020STAGE (FT)MMM
3FCFM8NF FLATHEAD-NEAR COLUMBIA FALLS07-06-2020DISCHARGE (KAF)39044188
4WGCM8MF FLATHEAD-NEAR WEST GLACIER07-06-2020DISCHARGE (KAF)438384114
5HHWM8SF FLATHEAD-HUNGRY HORSE DAM07-06-2020INFLOW (KAF)34935499
6CFMM8FLATHEAD-AT COLUMBIA FALLS07-06-2020DISCHARGE (KAF)15171496101
7DLGM8CLARK FORK-AT DEER LODGE07-06-2020DISCHARGE (KAF)8743203
8DRMM8CLARK FORK-NR DRUMMOND07-06-2020DISCHARGE (KAF)204MM
9RCCM8ROCK CREEK-NEAR CLINTON07-06-2020DISCHARGE (KAF)11085129
10BONM8BLACKFOOT-NEAR BONNER07-06-2020DISCHARGE (KAF)240224107
11ABOM8CLARK FORK-ABOVE MISSOULA07-06-2020DISCHARGE (KAF)583457127
12BITM8BITTERROOT-NEAR MISSOULA07-06-2020DISCHARGE (KAF)302299101
13BELM8CLARK FORK-BELOW MISSOULA07-06-2020DISCHARGE (KAF)884767115
14STRM8ST. REGIS-NEAR ST. REGIS07-06-2020DISCHARGE (KAF)373799
15SRGM8CLARK FORK-AT ST REGIS07-06-2020DISCHARGE (KAF)10771004107
16KERM8FLATHEAD-KERR DAM07-06-2020INFLOW (KAF)1715178796
17NOXM8CLARK FORK-NOXON RAPIDS DAM07-06-2020INFLOW (KAF)35993395106
18CABI1CLARK FORK-CABINET GORGE DAM07-06-2020INFLOW (KAF)39753640109
19PRTI1PRIEST-NEAR PRIEST RIVER07-06-2020DISCHARGE (KAF)203164124
20ALFW1PEND OREILLE-ALBENI FALLS DAM07-06-2020INFLOW (KAF)40383900104
21HOPI1PEND OREILLE-PEND OREILLE LAKE NR HOPE07-06-2020LAKE ELEVATION (FT)MMM
22COEI1COEUR D ALENE-COEUR D ALENE LAKE07-06-2020INFLOW (KAF)253247103
23SPOW1SPOKANE-AT SPOKANE07-06-2020DISCHARGE (KAF)413MM
24LLKW1SPOKANE-AT LONGLAKE07-06-2020INFLOW (KAF)59461597
25SATI1ST MARIES-NEAR SANTA07-06-2020DISCHARGE (KAF)171989
26SJMI1ST JOE-AT ST MARIES07-06-2020STAGE (FT)MMM
27CIBW1COLUMBIA-AT INTL BOUNDARY07-06-2020DISCHARGE (KAF)24312MM
28LAUW1KETTLE-AT LAURIER07-06-2020DISCHARGE (KAF)23323798
29GCDW1COLUMBIA-GRAND COULEE DAM07-06-2020INFLOW (KAF)2524024626102
30CHJW1COLUMBIA-CHIEF JOSEPH DAM07-06-2020INFLOW (KAF)2408722402108
31TONW1OKANOGAN-NEAR TONASKET07-06-2020DISCHARGE (KAF)453393115
32PATW1METHOW-NEAR PATEROS07-06-2020DISCHARGE (KAF)14519375
33WELW1COLUMBIA-WELLS DAM07-06-2020INFLOW (KAF)2471622970108
34CHDW1CHELAN-LAKE CHELAN DAM07-06-2020INFLOW (KAF)18934355
35RRHW1COLUMBIA-ROCKY REACH DAM07-06-2020INFLOW (KAF)2546523521108
36ARDW1ENTIAT-NEAR ARDENVOIR07-06-2020DISCHARGE (KAF)315162
37PESW1WENATCHEE-AT PESHASTIN07-06-2020DISCHARGE (KAF)26540166
38WANW1COLUMBIA-WANAPUM DAM07-06-2020INFLOW (KAF)2584225161103
39PRWW1COLUMBIA-PRIEST RAPIDS DAM07-06-2020INFLOW (KAF)2584125631101
40KEDW1YAKIMA-KEECHELUS LAKE07-06-2020INFLOW (KAF)242594
41KADW1KACHESS-KACHESS DAM07-06-2020INFLOW (KAF)141786
42EASW1YAKIMA-AT EASTON07-06-2020DISCHARGE (KAF)667588
43CLUW1CLE ELUM-CLE ELUM LAKE07-06-2020INFLOW (KAF)519355
44TNAW1TEANAWAY-BELOW FORKS07-06-2020DISCHARGE (KAF)7979
45UMTW1YAKIMA-AT UMTANUM07-06-2020DISCHARGE (KAF)59161097
46BUDW1BUMPING-BUMPING LAKE DAM07-06-2020INFLOW (KAF)182767
47CLFW1NACHES-NEAR CLIFFDEL07-06-2020DISCHARGE (KAF)8110081
48RILW1TIETON-RIMROCK LAKE NEAR RIMROCK07-06-2020INFLOW (KAF)747994
49NACW1NACHES-NEAR NACHES07-06-2020DISCHARGE (KAF)11615475
50PARW1YAKIMA-NEAR PARKER07-06-2020DISCHARGE (KAF)9413072
51KIOW1YAKIMA-AT KIONA07-06-2020DISCHARGE (KAF)38944188
52IPDI1HENRYS FORK-ISLAND PARK DAM07-06-2020INFLOW (KAF)13715190
53CHEI1FALL RIVER-NEAR CHESTER07-06-2020DISCHARGE (KAF)7877101
54ANTI1HENRYS FORK-AT ST. ANTHONY07-06-2020DISCHARGE (KAF)328314105
55TEAI1TETON-NEAR ST. ANTHONY07-06-2020DISCHARGE (KAF)197188105
56REXI1HENRYS FORK-AT REXBURG07-06-2020DISCHARGE (KAF)400362110
57JLKW4SNAKE-JACKSON LAKE AT DAM07-06-2020INFLOW (KAF)18722982
58JKSW4SNAKE-NEAR JACKSON07-06-2020DISCHARGE (KAF)87296291
59ALPW4SNAKE-NEAR ALPINE07-06-2020DISCHARGE (KAF)1047116790
60PLDI1SF SNAKE-PALISADES DAM07-06-2020INFLOW (KAF)1446158091
61HEII1SNAKE-NEAR HEISE07-06-2020DISCHARGE (KAF)1879195996
62RIDI1WILLOW CREEK-RIRIE DAM07-06-2020INFLOW (KAF)85149
63SIFI1SNAKE-AB EAGLE ROCK NR IDAHO FALLS07-06-2020DISCHARGE (KAF)13221316100
64SHYI1SNAKE-NEAR SHELLEY07-06-2020DISCHARGE (KAF)11851022116
65SNAI1SNAKE-AT BLACKFOOT07-06-2020DISCHARGE (KAF)743590126
66BFTI1SNAKE-NEAR BLACKFOOT07-06-2020DISCHARGE (KAF)738555133
67PIHI1PORTNEUF-AT POCATELLO07-06-2020DISCHARGE (KAF)232591
68AFRI1SNAKE-AMERICAN FALLS RESERVOIR07-06-2020INFLOW (KAF)13221209109
69MILI1SNAKE-AT MILNER07-06-2020DISCHARGE (KAF)1037112929
70HOTI1BRUNEAU-NEAR HOT SPRINGS07-06-2020DISCHARGE (KAF)2826105
71SWAI1SNAKE-BELOW SWAN FALLS07-06-2020DISCHARGE (KAF)26812004134
72HWRI1BIG LOST-AT HOWELL RANCH NEAR CHILLY07-06-2020DISCHARGE (KAF)275748
73MACI1BIG LOST-MACKAY RESERVOIR NEAR MACKAY07-06-2020INFLOW (KAF)364483
74HALI1BIG WOOD-AT HAILEY07-06-2020DISCHARGE (KAF)497664
75MAGI1BIG WOOD-MAGIC DAM07-06-2020INFLOW (KAF)183749
76LWRI1LITTLE WOOD-LITTLE WOOD DAM07-06-2020INFLOW (KAF)61736
77OWYO3OWYHEE-OWYHEE DAM07-06-2020INFLOW (KAF)5751111
78ARAI1SF BOISE-ANDERSON RANCH DAM07-06-2020INFLOW (KAF)539258
79LUCI1BOISE-LUCKY PEAK DAM07-06-2020INFLOW (KAF)446MM
80BIGI1BOISE-AT GLENWOOD BRIDGE07-06-2020DISCHARGE (KAF)12818271
81PARI1BOISE-NEAR PARMA07-06-2020DISCHARGE (KAF)17322278
82WRMO3MALHEUR-WARM SPRINGS DAM07-06-2020INFLOW (KAF)43151
83BERO3MALHEUR-AGENCY VALLEY DAM07-06-2020INFLOW (KAF)87122
84BULO3BULLY CREEK-BULLY CREEK DAM07-06-2020INFLOW (KAF)M0M
85CSDI1NF PAYETTE-CASCADE DAM07-06-2020INFLOW (KAF)7668112
86DEDI1DEADWOOD-NEAR LOWMAN07-06-2020INFLOW (KAF)162662
87EMMI1PAYETTE-NEAR EMMETT07-06-2020DISCHARGE (KAF)40543693
88WSRI1WEISER-NEAR WEISER07-06-2020DISCHARGE (KAF)545696
89WEII1SNAKE-AT WEISER07-06-2020DISCHARGE (KAF)37492955127
90BRNI1SNAKE-BROWNLEE DAM07-06-2020INFLOW (KAF)38883006129
91WHBI1SALMON-AT WHITEBIRD07-06-2020DISCHARGE (KAF)15841559102
92TRYO3GRANDE RONDE-TROY07-06-2020DISCHARGE (KAF)316241131
93ANAW1SNAKE-NEAR ANATONE07-06-2020DISCHARGE (KAF)61534972124
94ORFI1CLEARWATER-AT OROFINO07-06-2020DISCHARGE (KAF)60767490
95DWRI1NF CLEARWATER-DWORSHAK DAM07-06-2020INFLOW (KAF)33343676
96SPDI1CLEARWATER-AT SPALDING07-06-2020DISCHARGE (KAF)22561268178
97LGDW1SNAKE-LOWER GRANITE DAM07-06-2020INFLOW (KAF)84086313133
98LGSW1SNAKE-LITTLE GOOSE DAM07-06-2020INFLOW (KAF)83916338132
99LMNW1SNAKE-LOWER MONUMENTAL DAM07-06-2020INFLOW (KAF)84036371132
100IHDW1SNAKE-ICE HARBOR DAM07-06-2020INFLOW (KAF)84256283134
101TCHW1WALLA WALLA-NEAR TOUCHET07-06-2020DISCHARGE (KAF)108116
102MCDW1COLUMBIA-MCNARY DAM07-06-2020INFLOW (KAF)3482832945106
103GIBO3UMATILLA-NEAR GIBBON07-06-2020DISCHARGE (KAF)121299
104PDTO3UMATILLA-AT PENDLETON07-06-2020DISCHARGE (KAF)121297
105MYKO3MCKAY CREEK-NEAR PILOT ROCK07-06-2020DISCHARGE (KAF)0098
106UMAO3UMATILLA-NEAR UMATILLA07-06-2020DISCHARGE (KAF)347463
107MONO3NF JOHN DAY-AT MONUMENT07-06-2020DISCHARGE (KAF)4643106
108SERO3JOHN DAY-AT SERVICE CK07-06-2020DISCHARGE (KAF)6867102
109JDAO3COLUMBIA-JOHN DAY DAM07-06-2020INFLOW (KAF)3530933458106
110MODO3DESCHUTES-AT MOODY NR BIGGS07-06-2020DISCHARGE (KAF)1044109495
111TDAO3COLUMBIA-THE DALLES DAM07-06-2020INFLOW (KAF)3569732689109
112PITW1KLICKITAT-NEAR PITT07-06-2020DISCHARGE (KAF)17420385
113HODO3HOOD-NEAR TUCKER BRIDGE07-06-2020DISCHARGE (KAF)819288
114UNDW1WHITE SALMON-NEAR UNDERWOOD07-06-2020DISCHARGE (KAF)14316587
115BONO3COLUMBIA-BONNEVILLE DAM07-06-2020INFLOW (KAF)3607833711107